Flag for South Africa Weather past 2 weeks in Stellenbosch, South Africa

Now
59 °F

Partly sunny.


Feels Like: 56 °F
Forecast: 53 / 59 °F
Wind: 17 mph from Northwest

Location: Cape Town International Airport

Current Time: Aug 3, 2015 at 3:52:11 PM

Latest Report: Aug 3, 2015 at 3:00 PM


Visibility: N/A

Pressure: 29.95 "Hg

Humidity: 68%

Dew point: 48 °F

Location of StellenboschLocation

Historic Weather in Stellenbosch — Graph

°F

Stellenbosch temperature yesterday

Maximum temperature yesterday: 77 °F (at 2:00 PM)
Minimum temperature yesterday: 41 °F (at 6:00 AM)
Average temperature yesterday: 56 °F

Past Weeks' High & Low Weather Summary

 TemperatureHumidityPressure
High77 °F (Aug 2, 2:00 PM)100% (Jul 19, 6:00 PM)30.45 "Hg (Jul 19, 6:00 PM)
Low39 °F (Jul 26, 8:00 AM)21% (Aug 2, 3:00 PM)29.89 "Hg (Jul 30, 4:00 AM)
Average53 °F79%30.19 "Hg
* Reported Jul 19 2:00 PM — Aug 3 2:00 PM, Stellenbosch, Weather by CustomWeather, © 2015

Note: Actual official high and low records may vary slightly from our data, if they occured in-between our weather recording intervals... More about our weather records

Advertising

Stellenbosch weather history for previous 24 hours

 ConditionsComfort  
Time TempWeatherWind HumidityBarometerVisibility
2:00 PM
Mon, Aug 3
57 °FPartly sunny.22 mph77%29.95 "HgN/A
1:00 PM57 °FPassing clouds.28 mph77%29.95 "HgN/A
12:00 PM55 °FPartly sunny.18 mph88%29.98 "HgN/A
11:00 AM57 °FPassing clouds.20 mph77%29.95 "HgN/A
10:00 AM57 °FSunny.7 mph63%29.95 "Hg10 mi
9:00 AM54 °FSunny.2 mph67%29.92 "Hg10 mi
8:00 AM55 °FSunny.15 mph67%29.92 "Hg10 mi
7:00 AM54 °FSunny.8 mph63%29.89 "Hg10 mi
6:00 AM54 °FPassing clouds.5 mph58%29.89 "HgN/A
5:00 AM55 °FClear.7 mph44%29.89 "Hg10 mi
4:00 AM54 °FClear.3 mph67%29.92 "Hg10 mi
3:00 AM48 °FClear.6 mph82%29.92 "Hg10 mi
2:00 AM52 °FClear.3 mph77%29.92 "Hg10 mi
1:00 AM52 °FClear.2 mph82%29.92 "Hg10 mi
12:00 AM46 °FClear.6 mph87%29.95 "Hg10 mi
11:00 PM
Sun, Aug 2
48 °FPassing clouds.5 mph82%29.95 "HgN/A
10:00 PM57 °FClear.8 mph51%29.95 "Hg10 mi
9:00 PM54 °FClear.6 mph67%29.95 "Hg10 mi
8:00 PM55 °FClear.3 mph63%29.98 "Hg10 mi
7:00 PM61 °FClear.2 mph52%29.98 "Hg10 mi
6:00 PM61 °FClear.2 mph52%30.01 "Hg10 mi
5:00 PM66 °FSunny.9 mph40%30.01 "Hg10 mi
4:00 PM77 °FSunny.9 mph21%30.01 "Hg10 mi
3:00 PM77 °FPassing clouds.10 mph21%30.01 "HgN/A
Weather by CustomWeather, © 2015

See weather overviewHow to use our weather pages